Location: Unspecified
(0.0000°N, 0.0000°E)
Time: 13:08:52
(UTC+00:00)

deb r/b Ablestar - Visible Passes

Search period start: 11 February 2026 00:00
Search period end: 21 February 2026 00:00
Orbit: 891 x 1144 km, 67.2° (Epoch: 10 February)

Date Brightness Start Highest point End Pass type
(mag) Time Alt. Az. Time Alt. Az. Time Alt. Az.
11 Feb ? 05:08:51 10° N 05:15:36 49° ENE 05:22:33 10° SE visible
12 Feb ? 04:02:17 10° NE 04:05:51 14° ENE 04:09:27 10° ESE visible
12 Feb ? 05:47:04 10° NNW 05:54:01 60° WSW 06:01:10 10° S visible
13 Feb ? 04:37:38 10° N 04:44:17 44° ENE 04:51:06 10° SE visible
14 Feb ? 03:31:44 10° NE 03:34:31 12° ENE 03:37:18 10° E visible
14 Feb ? 05:15:40 10° NNW 05:22:41 67° WSW 05:29:55 10° S visible
15 Feb ? 04:07:03 13° N 04:12:57 40° ENE 04:19:38 10° SE visible
16 Feb ? 03:01:37 10° ENE 03:03:10 11° ENE 03:04:43 10° E visible
16 Feb ? 04:46:07 20° NNW 04:51:21 74° WSW 04:58:37 10° SSE visible
17 Feb ? 03:39:28 30° NE 03:41:37 36° ENE 03:48:06 10° SE visible
17 Feb ? 05:25:07 14° WNW 05:29:50 26° WSW 05:35:38 10° SSW visible
18 Feb ? 04:18:25 58° NNW 04:20:01 82° WSW 04:27:18 10° SSE visible
19 Feb ? 03:11:38 30° E 03:11:38 30° E 03:16:33 10° SE visible
19 Feb ? 04:57:16 27° W 04:58:28 29° WSW 05:04:34 10° SSW visible
20 Feb ? 03:50:23 57° SSE 03:50:23 57° SSE 03:55:58 10° SSE visible
